H1 CPF 2 NER 2024 5 29 9 150 01 glonass132 H2 1401201 9132 39620 2024 5 29 0 0 0 2024 6 1 23 45 0 900 1 1 0 0 0 1 H9 10 0 60459 0.00000 0 -9046295.226 14793016.619 18695286.561 10 0 60459 900.00000 0 -8921704.867 12376434.297 20435065.966 10 0 60459 1800.00000 0 -8992100.730 9768687.719 21777701.205 10 0 60459 2700.00000 0 -9277254.052 7036323.967 22697300.337 10 0 60459 3600.00000 0 -9784698.927 4249522.294 23176207.202 10 0 60459 4500.00000 0 -10509322.144 1479393.518 23205327.470 10 0 60459 5400.00000 0 -11433500.794 -1204747.739 22784288.734 10 0 60459 6300.00000 0 -12527780.903 -3738025.667 21921432.893 10 0 60459 7200.00000 0 -13752067.941 -6062452.503 20633642.113 10 0 60459 8100.00000 0 -15057278.897 -8129084.573 18946002.549 10 0 60459 9000.00000 0 -16387386.683 -9899797.761 16891312.800 10 0 60459 9900.00000 0 -17681771.526 -11348610.801 14509446.734 10 0 60459 10800.00000 0 -18877781.423 -12462503.545 11846582.813 10 0 60459 11700.00000 0 -19913395.169 -13241698.127 8954314.354 10 0 60459 12600.00000 0 -20729877.193 -13699392.994 5888657.332 10 0 60459 13500.00000 0 -21274313.666 -13860962.282 2708974.200 10 0 60459 14400.00000 0 -21501924.197 -13762655.023 -523166.283 10 0 60459 15300.00000 0 -21378052.479 -13449849.255 -3745171.817 10 0 60459 16200.00000 0 -20879752.414 -12974934.560 -6894629.761 10 0 60459 17100.00000 0 -19996902.837 -12394911.926 -9910508.132 10 0 60459 18000.00000 0 -18732803.302 -11768811.632 -12734331.605 10 0 60459 18900.00000 0 -17104224.832 -11155037.474 -15311310.266 10 0 60459 19800.00000 0 -15140911.980 -10608748.814 -17591399.606 10 0 60459 20700.00000 0 -12884555.263 -10179390.524 -19530271.455 10 0 60459 21600.00000 0 -10387274.970 -9908474.860 -21090177.226 10 0 60459 22500.00000 0 -7709677.576 -9827709.005 -22240686.709 10 0 60459 23400.00000 0 -4918563.911 -9957547.818 -22959287.879 10 0 60459 24300.00000 0 -2084382.753 -10306233.748 -23231835.681 10 0 60459 25200.00000 0 721465.627 -10869365.677 -23052840.416 10 0 60459 26100.00000 0 3429364.836 -11630016.459 -22425589.228 10 0 60459 27000.00000 0 5974143.548 -12559395.888 -21362097.238 10 0 60459 27900.00000 0 8297552.024 -13618032.884 -19882888.073 10 0 60459 28800.00000 0 10350450.739 -14757428.511 -18016606.800 10 0 60459 29700.00000 0 12094619.562 -15922111.303 -15799471.648 10 0 60459 30600.00000 0 13504111.556 -17052008.815 -13274574.264 10 0 60459 31500.00000 0 14566094.432 -18085035.377 -10491041.553 10 0 60459 32400.00000 0 15281144.307 -18959786.306 -7503075.261 10 0 60459 33300.00000 0 15662979.681 -19618223.747 -4368888.314 10 0 60459 34200.00000 0 15737647.508 -20008239.282 -1149559.459 10 0 60459 35100.00000 0 15542196.836 -20085983.421 2092170.297 10 0 60459 36000.00000 0 15122897.511 -19817861.985 5293134.544 10 0 60459 36900.00000 0 14533081.101 -19182113.660 8390985.867 10 0 60459 37800.00000 0 13830697.302 -18169901.097 11325421.993 10 0 60459 38700.00000 0 13075691.165 -16785868.944 14039368.482 10 0 60459 39600.00000 0 12327313.767 -15048145.139 16480093.899 10 0 60459 40500.00000 0 11641481.352 -12987785.670 18600235.265 10 0 60459 41400.00000 0 11068295.317 -10647686.604 20358713.883 10 0 60459 42300.00000 0 10649827.920 -8081009.628 21721524.172 10 0 60459 43200.00000 0 10418266.758 -5349187.536 22662381.173 10 0 60459 44100.00000 0 10394495.330 -2519593.285 23163215.417 10 0 60459 45000.00000 0 10587168.233 337030.196 23214507.006 10 0 60459 45900.00000 0 10992318.529 3149272.900 22815453.898 10 0 60459 46800.00000 0 11593512.427 5847781.872 21973972.531 10 0 60459 47700.00000 0 12362543.576 8367894.717 20706531.898 10 0 60459 48600.00000 0 13260636.994 10652074.842 19037825.136 10 0 60459 49500.00000 0 14240111.564 12652049.264 17000285.445 10 0 60459 50400.00000 0 15246431.237 14330562.256 14633455.850 10 0 60459 51300.00000 0 16220559.121 15662673.996 11983224.806 10 0 60459 52200.00000 0 17101516.154 16636552.163 9100941.971 10 0 60459 53100.00000 0 17829037.650 17253725.169 6042430.664 10 0 60459 54000.00000 0 18346216.860 17528787.923 2866915.347 10 0 60459 54900.00000 0 18602025.171 17488573.446 -364115.872 10 0 60459 55800.00000 0 18553603.488 17170825.704 -3588092.444 10 0 60459 56700.00000 0 18168228.675 16622429.629 -6742564.126 10 0 60459 57600.00000 0 17424872.206 15897272.555 -9766402.649 10 0 60459 58500.00000 0 16315284.923 15053826.708 -12600979.531 10 0 60459 59400.00000 0 14844561.307 14152553.926 -15191297.720 10 0 60459 60300.00000 0 13031158.076 13253241.285 -17487055.515 10 0 60459 61200.00000 0 10906364.536 12412379.297 -19443622.393 10 0 60459 62100.00000 0 8513244.739 11680692.697 -21022908.005 10 0 60459 63000.00000 0 5905093.389 11100927.629 -22194107.471 10 0 60459 63900.00000 0 3143467.765 10705988.578 -22934308.324 10 0 60459 64800.00000 0 295875.562 10517503.974 -23228946.925 10 0 60459 65700.00000 0 -2566786.876 10544881.659 -23072104.853 10 0 60459 66600.00000 0 -5372940.738 10784895.122 -22466638.622 10 0 60459 67500.00000 0 -8053063.740 11221819.189 -21424139.155 10 0 60459 68400.00000 0 -10542348.524 11828110.817 -19964720.583 10 0 60459 69300.00000 0 -12783169.820 12565607.540 -18116641.267 10 0 60459 70200.00000 0 -14727257.324 13387194.047 -15915763.227 10 0 60459 71100.00000 0 -16337483.174 14238867.169 -13404859.578 10 0 60459 72000.00000 0 -17589188.751 15062112.186 -10632782.841 10 0 60459 72900.00000 0 -18470994.900 15796489.658 -7653510.133 10 0 60459 73800.00000 0 -18985061.449 16382322.456 -4525084.108 10 0 60459 74700.00000 0 -19146785.424 16763368.013 -1308471.062 10 0 60459 75600.00000 0 -18983951.421 16889361.131 1933640.371 10 0 60459 76500.00000 0 -18535371.187 16718318.047 5138075.091 10 0 60459 77400.00000 0 -17849071.446 16218502.733 8242416.219 10 0 60459 78300.00000 0 -16980108.381 15369970.984 11186232.799 10 0 60459 79200.00000 0 -15988103.039 14165626.125 13912265.229 10 0 60459 80100.00000 0 -14934603.640 12611741.320 16367544.307 10 0 60459 81000.00000 0 -13880387.619 10727926.369 18504421.573 10 0 60459 81900.00000 0 -12882818.317 8546540.612 20281490.902 10 0 60459 82800.00000 0 -11993368.171 6111576.998 21664383.885 10 0 60459 83700.00000 0 -11255412.558 3477064.505 22626424.502 10 0 60459 84600.00000 0 -10702386.356 705055.982 23149131.633 10 0 60459 85500.00000 0 -10356379.487 -2136714.518 23222561.105 10 0 60460 0.00000 0 -10227228.877 -4977407.428 22845482.193 10 0 60460 900.00000 0 -10312143.260 -7745781.416 22025386.257 10 0 60460 1800.00000 0 -10595875.041 -10372910.159 20778329.107 10 0 60460 2700.00000 0 -11051430.384 -12794805.818 19128610.338 10 0 60460 3600.00000 0 -11641286.862 -14954838.201 17108296.726 10 0 60460 4500.00000 0 -12319066.805 -16805852.551 14756598.939 10 0 60460 5400.00000 0 -13031595.863 -18311899.597 12119113.470 10 0 60460 6300.00000 0 -13721260.436 -19449507.769 9246943.971 10 0 60460 7200.00000 0 -14328565.332 -20208446.237 6195718.419 10 0 60460 8100.00000 0 -14794784.658 -20591948.327 3024520.355 10 0 60460 9000.00000 0 -15064595.082 -20616387.076 -205245.907 10 0 60460 9900.00000 0 -15088581.134 -20310417.156 -3431034.853 10 0 60460 10800.00000 0 -14825507.429 -19713619.467 -6590362.023 10 0 60460 11700.00000 0 -14244262.129 -18874705.216 -9622006.310 10 0 60460 12600.00000 0 -13325389.454 -17849354.571 -12467189.517 10 0 60460 13500.00000 0 -12062145.919 -16697780.176 -15070710.818 10 0 60460 14400.00000 0 -10461034.585 -15482117.256 -17382014.527 10 0 60460 15300.00000 0 -8541793.152 -14263749.375 -19356170.705 10 0 60460 16200.00000 0 -6336834.307 -13100681.660 -20954749.804 10 0 60460 17100.00000 0 -3890159.386 -12045071.464 -22146574.368 10 0 60460 18000.00000 0 -1255788.349 -11141020.085 -22908333.042 10 0 60460 18900.00000 0 1504230.780 -10422718.431 -23225044.577 10 0 60460 19800.00000 0 4322152.215 -9913024.970 -23090362.225 10 0 60460 20700.00000 0 7127107.141 -9622536.399 -22506711.707 10 0 60460 21600.00000 0 9847817.071 -9549191.008 -21485259.067 10 0 60460 22500.00000 0 12415333.690 -9678422.392 -20045707.783 10 0 60460 23400.00000 0 14765691.375 -9983858.016 -18215927.883 10 0 60460 24300.00000 0 16842361.724 -10428533.980 -16031423.107 10 0 60460 25200.00000 0 18598407.192 -10966575.253 -13534645.520 10 0 60460 26100.00000 0 19998243.178 -11545270.502 -10774170.302 10 0 60460 27000.00000 0 21018934.144 -12107453.477 -7803746.589 10 0 60460 27900.00000 0 21650969.011 -12594089.321 -4681243.075 10 0 60460 28800.00000 0 21898483.069 -12946955.079 -1467509.693 10 0 60460 29700.00000 0 21778917.446 -13111299.290 1774821.298 10 0 60460 30600.00000 0 21322131.278 -13038366.285 4982570.045 10 0 60460 31500.00000 0 20569005.269 -12687676.565 8093253.936 10 0 60460 32400.00000 0 19569597.214 -12028965.230 11046316.708 10 0 60460 33300.00000 0 18380929.129 -11043695.257 13784316.541 10 0 60460 34200.00000 0 17064501.187 -9726080.920 16254048.902 10 0 60460 35100.00000 0 15683638.935 -8083577.778 18407581.755 10 0 60460 36000.00000 0 14300786.800 -6136818.566 20203182.929 10 0 60460 36900.00000 0 12974862.507 -3918997.920 21606122.065 10 0 60460 37800.00000 0 11758783.756 -1474732.046 22589332.480 10 0 60460 38700.00000 0 10697270.474 1141558.627 23133921.350 10 0 60460 39600.00000 0 9825013.763 3867676.125 23229519.756 10 0 60460 40500.00000 0 9165286.720 6635996.593 22874467.312 10 0 60460 41400.00000 0 8729053.520 9376049.545 22075829.199 10 0 60460 42300.00000 0 8514612.113 12017218.303 20849246.453 10 0 60460 43200.00000 0 8507783.649 14491450.593 19218623.269 10 0 60460 44100.00000 0 8682639.090 16735868.235 17215657.881 10 0 60460 45000.00000 0 9002731.301 18695169.103 14879226.274 10 0 60460 45900.00000 0 9422780.105 20323723.294 12254630.464 10 0 60460 46800.00000 0 9890739.173 21587277.992 9392725.434 10 0 60460 47700.00000 0 10350157.890 22464201.558 6348941.041 10 0 60460 48600.00000 0 10742739.141 22946216.313 3182217.052 10 0 60460 49500.00000 0 11010985.829 23038590.411 -46128.873 10 0 60460 50400.00000 0 11100825.145 22759781.462 -3273579.060 10 0 60460 51300.00000 0 10964100.421 22140547.134 -6437617.498 10 0 60460 52200.00000 0 10560825.709 21222559.953 -9476932.689 10 0 60460 53100.00000 0 9861107.903 20056584.079 -12332598.901 10 0 60460 54000.00000 0 8846654.845 18700289.926 -14949213.413 10 0 60460 54900.00000 0 7511804.856 17215797.638 -17275968.125 10 0 60460 55800.00000 0 5864032.881 15667051.671 -19267634.973 10 0 60460 56700.00000 0 3923910.016 14117135.924 -20885446.251 10 0 60460 57600.00000 0 1724515.825 12625641.354 -22097852.762 10 0 60460 58500.00000 0 -689674.447 11246196.075 -22881144.902 10 0 60460 59400.00000 0 -3264383.774 10024261.285 -23219924.263 10 0 60460 60300.00000 0 -5937544.230 8995285.518 -23107415.985 10 0 60460 61200.00000 0 -8641643.090 8183294.978 -22545614.950 10 0 60460 62100.00000 0 -11306308.030 7599979.596 -21545261.931 10 0 60460 63000.00000 0 -13861024.892 7244313.883 -20125648.996 10 0 60460 63900.00000 0 -16237875.310 7102729.150 -18314256.709 10 0 60460 64800.00000 0 -18374180.093 7149830.473 -16146229.032 10 0 60460 65700.00000 0 -20214937.640 7349628.485 -13663695.179 10 0 60460 66600.00000 0 -21714954.748 7657234.101 -10914950.962 10 0 60460 67500.00000 0 -22840579.756 8020944.143 -7953515.339 10 0 60460 68400.00000 0 -23570964.621 8384628.869 -4837080.748 10 0 60460 69300.00000 0 -23898802.339 8690319.047 -1626378.406 10 0 60460 70200.00000 0 -23830508.592 8880881.439 1616018.197 10 0 60460 71100.00000 0 -23385840.267 8902667.518 4826926.880 10 0 60460 72000.00000 0 -22596967.785 8708021.353 7943801.740 10 0 60460 72900.00000 0 -21507041.604 8257538.740 10905963.670 10 0 60460 73800.00000 0 -20168314.916 7521980.517 13655791.076 10 0 60460 74700.00000 0 -18639903.408 6483758.116 16139846.488 10 0 60460 75600.00000 0 -16985278.086 5137927.989 18309916.575 10 0 60460 76500.00000 0 -15269598.054 3492652.712 20123945.236 10 0 60460 77400.00000 0 -13556996.293 1569109.488 21546842.053 10 0 60460 78300.00000 0 -11907932.738 -599149.923 22551151.297 10 0 60460 79200.00000 0 -10376725.334 -2967360.687 23117569.750 10 0 60460 80100.00000 0 -9009361.604 -5481179.024 23235304.732 10 0 60460 81000.00000 0 -7841680.806 -8078720.758 22902266.895 10 0 60460 81900.00000 0 -6898000.870 -10692919.651 22125095.474 10 0 60460 82800.00000 0 -6190245.405 -13254107.938 20919016.684 10 0 60460 83700.00000 0 -5717605.119 -15692712.687 19307538.891 10 0 60460 84600.00000 0 -5466745.803 -17941957.148 17321991.000 10 0 60460 85500.00000 0 -5412552.426 -19940456.162 15000913.141 10 0 60461 0.00000 0 -5519376.800 -21634599.122 12389311.577 10 0 60461 900.00000 0 -5742735.653 -22980623.683 9537790.302 10 0 60461 1800.00000 0 -6031387.161 -23946293.050 6501579.136 10 0 60461 2700.00000 0 -6329698.741 -24512111.139 3339471.683 10 0 60461 3600.00000 0 -6580206.563 -24672023.470 112696.350 10 0 60461 4500.00000 0 -6726259.349 -24433576.054 -3116259.814 10 0 60461 5400.00000 0 -6714635.413 -23817525.723 -6284852.190 10 0 60461 6300.00000 0 -6498022.875 -22856918.110 -9331681.970 10 0 60461 7200.00000 0 -6037258.463 -21595671.524 -12197679.062 10 0 60461 8100.00000 0 -5303230.204 -20086725.384 -14827242.056 10 0 60461 9000.00000 0 -4278363.049 -18389829.981 -17169313.593 10 0 60461 9900.00000 0 -2957623.678 -16569069.241 -19178370.490 10 0 60461 10800.00000 0 -1349000.511 -14690219.351 -20815309.632 10 0 60461 11700.00000 0 526563.310 -12818052.946 -22048212.472 10 0 60461 12600.00000 0 2635783.581 -11013701.082 -22852973.123 10 0 60461 13500.00000 0 4934172.153 -9332182.856 -23213777.501 10 0 60461 14400.00000 0 7367652.541 -7820205.856 -23123423.632 10 0 60461 15300.00000 0 9874588.797 -6514329.501 -22583476.054 10 0 60461 16200.00000 0 12388144.971 -5439568.444 -21604250.302 10 0 60461 17100.00000 0 14838878.174 -4608494.899 -20204626.595 10 0 60461 18000.00000 0 17157457.903 -4020878.046 -18411695.126 10 0 60461 18900.00000 0 19277398.425 -3663876.011 -16260238.692 10 0 60461 19800.00000 0 21137689.810 -3512772.590 -13792061.752 10 0 60461 20700.00000 0 22685216.878 -3532227.605 -11055178.314 10 0 60461 21600.00000 0 23876863.808 -3677987.722 -8102874.213 10 0 60461 22500.00000 0 24681215.136 -3898984.591 -4992662.227 10 0 60461 23400.00000 0 25079780.779 -4139730.332 -1785151.098 10 0 60461 24300.00000 0 25067693.007 -4342907.317 1457148.439 10 0 60461 25200.00000 0 24653845.838 -4452040.730 4671055.919 10 0 60461 26100.00000 0 23860471.348 -4414138.712 7793966.091 10 0 60461 27000.00000 0 22722171.543 -4182186.384 10765080.699 10 0 60461 27900.00000 0 21284447.833 -3717386.516 13526601.707 10 0 60461 28800.00000 0 19601791.521 -2991050.766 16024861.602 10 0 60461 29700.00000 0 17735417.229 -1986060.701 18211368.177 10 0 60461 30600.00000 0 15750735.935 -697836.537 20043743.334 10 0 60461 31500.00000 0 13714674.810 865227.301 21486538.056 10 0 60461 32400.00000 0 11692956.806 2681877.877 22511908.571 10 0 60461 33300.00000 0 9747453.847 4718665.555 23100141.823 10 0 60461 34200.00000 0 7933723.698 6931123.877 23240021.486 10 0 60461 35100.00000 0 6298832.123 9265418.006 22929028.933 10 0 60461 36000.00000 0 4879549.490 11660393.027 22173376.704 10 0 60461 36900.00000 0 3700994.993 14049937.071 20987875.020 10 0 60461 37800.00000 0 2775782.759 16365561.547 19395634.861 10 0 60461 38700.00000 0 2103703.210 18539092.050 17427613.870 10 0 60461 39600.00000 0 1671950.897 20505359.142 15122014.092 10 0 60461 40500.00000 0 1455887.472 22204778.317 12523543.032 10 0 60461 41400.00000 0 1420306.454 23585713.053 9682551.899 10 0 60461 42300.00000 0 1521145.840 24606523.714 6654067.120 10 0 60461 43200.00000 0 1707576.094 25237217.915 3496733.088 10 0 60461 44100.00000 0 1924375.627 25460634.279 271685.839 10 0 60461 45000.00000 0 2114493.884 25273110.616 -2958621.317 10 0 60461 45900.00000 0 2221694.339 24684608.777 -6131618.174 10 0 60461 46800.00000 0 2193166.275 23718290.749 -9185821.461 10 0 60461 47700.00000 0 1981995.341 22409563.286 -12062019.311 10 0 60461 48600.00000 0 1549388.633 20804630.278 -14704413.918 10 0 60461 49500.00000 0 866559.998 18958612.488 -17061700.627 10 0 60461 50400.00000 0 -83804.721 16933312.270 -19088062.768 10 0 60461 51300.00000 0 -1306565.555 14794715.637 -20744063.154 10 0 60461 52200.00000 0 -2793672.449 12610335.016 -21997414.938 10 0 60461 53100.00000 0 -4524256.798 10446502.862 -22823616.734 10 0 60461 54000.00000 0 -6465269.001 8365728.412 -23206439.292 10 0 60461 54900.00000 0 -8572637.883 6424227.512 -23138253.736 10 0 60461 55800.00000 0 -10792905.802 4669728.444 -22620194.139 10 0 60461 56700.00000 0 -13065273.262 3139645.476 -21662150.297 10 0 60461 57600.00000 0 -15323969.297 1859696.631 -20282589.680 10 0 60461 58500.00000 0 -17500849.701 843023.865 -18508210.800 10 0 60461 59400.00000 0 -19528115.100 89852.765 -16373433.603 10 0 60461 60300.00000 0 -21341035.110 -412293.806 -13919735.788 10 0 60461 61200.00000 0 -22880563.956 -687837.153 -11194847.309 10 0 60461 62100.00000 0 -24095736.966 -771871.703 -8251818.456 10 0 60461 63000.00000 0 -24945746.195 -708435.870 -5147979.816 10 0 60461 63900.00000 0 -25401606.767 -548399.114 -1943815.045 10 0 60461 64800.00000 0 -25447342.859 -347056.156 1298230.507 10 0 60461 65700.00000 0 -25080642.756 -161532.057 4514980.741 10 0 60461 66600.00000 0 -24312955.199 -48110.066 7643773.711 10 0 60461 67500.00000 0 -23169023.305 -59597.424 10623694.623 10 0 60461 68400.00000 0 -21685876.478 -242842.451 13396771.534 10 0 60461 69300.00000 0 -19911323.913 -636509.495 15909109.294 10 0 60461 70200.00000 0 -17902014.393 -1269206.829 18111939.019 10 0 60461 71100.00000 0 -15721145.215 -2158047.164 19962562.558 10 0 60461 72000.00000 0 -13435917.489 -3307701.634 21425173.919 10 0 60461 72900.00000 0 -11114845.131 -4709986.886 22471542.567 10 0 60461 73800.00000 0 -8825030.279 -6344002.259 23081546.537 10 0 60461 74700.00000 0 -6629518.557 -8176810.841 23243546.432 10 0 60461 75600.00000 0 -4584843.495 -10164635.518 22954594.600 10 0 60461 76500.00000 0 -2738860.881 -12254519.835 22220476.840 10 0 60461 77400.00000 0 -1128961.313 -14386384.411 21055587.069 10 0 60461 78300.00000 0 219266.880 -16495393.522 19482638.294 10 0 60461 79200.00000 0 1292871.031 -18514533.888 17532216.055 10 0 60461 80100.00000 0 2091831.353 -20377299.127 15242183.184 10 0 60461 81000.00000 0 2628811.712 -22020369.063 12656947.278 10 0 60461 81900.00000 0 2928376.126 -23386173.379 9826604.613 10 0 60461 82800.00000 0 3025705.102 -24425233.756 6805976.498 10 0 60461 83700.00000 0 2964866.579 -25098187.697 3653555.948 10 0 60461 84600.00000 0 2796714.526 -25377410.244 430384.252 10 0 60461 85500.00000 0 2576503.711 -25248166.209 -2801121.559 10 0 60462 0.00000 0 2361320.918 -24709244.889 -5978368.098 10 0 60462 900.00000 0 2207440.539 -23773050.089 -9039791.005 10 0 60462 1800.00000 0 2167716.015 -22465141.876 -11926039.251 10 0 60462 2700.00000 0 2289116.684 -20823247.438 -14581121.559 10 0 60462 3600.00000 0 2610514.338 -18895781.872 -16953488.879 10 0 60462 4500.00000 0 3160813.191 -16739939.326 -18997033.855 10 0 60462 5400.00000 0 3957503.003 -14419432.933 -20671987.812 10 0 60462 6300.00000 0 5005697.604 -12001976.596 -21945697.907 10 0 60462 7200.00000 0 6297701.052 -9556612.577 -22793269.191 10 0 60462 8100.00000 0 7813121.722 -7150995.334 -23198058.785 10 0 60462 9000.00000 0 9519531.879 -4848744.117 -23152012.013 10 0 60462 9900.00000 0 11373647.369 -2706974.266 -22655833.163 10 0 60462 10800.00000 0 13322980.258 -774109.931 -21718986.557 10 0 60462 11700.00000 0 15307897.064 911930.465 -20359526.764 10 0 60462 12600.00000 0 17263997.801 2325100.056 -18603760.052 10 0 60462 13500.00000 0 19124717.050 3452083.309 -16485742.510 10 0 60462 14400.00000 0 20824038.280 4292613.595 -14046623.599 10 0 60462 15300.00000 0 22299207.224 4859235.251 -11333847.251 10 0 60462 16200.00000 0 23493329.551 5176520.504 -8400225.737 10 0 60462 17100.00000 0 24357742.512 5279774.955 -5302904.519 10 0 60462 18000.00000 0 24854059.449 5213287.354 -2102238.849 10 0 60462 18900.00000 0 24955799.818 5028199.134 1139394.910 10 0 60462 19800.00000 0 24649535.027 4780085.630 4358828.768 10 0 60462 20700.00000 0 23935501.143 4526353.390 7493347.814 10 0 60462 21600.00000 0 22827652.474 4323565.815 10481924.316 10 0 60462 22500.00000 0 21353154.074 4224812.294 13266415.778 10 0 60462 23400.00000 0 19551335.273 4277233.800 15792702.440 10 0 60462 24300.00000 0 17472149.265 4519810.802 18011741.406 10 0 60462 25200.00000 0 15174204.582 4981507.704 19880516.746 10 0 60462 26100.00000 0 12722452.067 5679852.329 21362867.373 10 0 60462 27000.00000 0 10185624.995 6620010.168 22430177.470 10 0 60462 27900.00000 0 7633539.659 7794391.849 23061917.229 10 0 60462 28800.00000 0 5134368.937 9182809.721 23246024.843 10 0 60462 29700.00000 0 2752001.719 10753176.335 22979123.839 10 0 60462 30600.00000 0 543596.781 12462715.125 22266573.032 10 0 60462 31500.00000 0 -1442568.862 14259632.377 21122349.308 10 0 60462 32400.00000 0 -3168869.784 16085180.693 19568766.522 10 0 60462 33300.00000 0 -4609648.892 17876028.164 17636036.492 10 0 60462 34200.00000 0 -5752028.599 19566834.981 15361680.839 10 0 60462 35100.00000 0 -6596184.900 21092930.787 12789804.915 10 0 60462 36000.00000 0 -7155074.922 22392981.992 9970247.467 10 0 60462 36900.00000 0 -7453630.920 23411538.562 6957621.879 10 0 60462 37800.00000 0 -7527455.720 24101354.759 3810266.814 10 0 60462 38700.00000 0 -7421075.056 24425387.443 589125.740 10 0 60462 39600.00000 0 -7185820.614 24358388.714 -2643423.715 10 0 60462 40500.00000 0 -6877432.825 23888026.304 -5824768.656 10 0 60462 41400.00000 0 -6553484.202 23015484.483 -8893265.504 10 0 60462 42300.00000 0 -6270731.475 21755519.674 -11789427.484 10 0 60462 43200.00000 0 -6082507.930 20135967.449 -14457072.463 10 0 60462 44100.00000 0 -6036265.753 18196720.241 -16844409.320 10 0 60462 45000.00000 0 -6171372.187 15988217.059 -18905042.019 10 0 60462 45900.00000 0 -6517252.862 13569506.730 -20598872.096 10 0 60462 46800.00000 0 -7091961.403 11005963.892 -21892882.095 10 0 60462 47700.00000 0 -7901236.847 8366751.559 -22761784.574 10 0 60462 48600.00000 0 -8938090.161 5722134.687 -23188523.775 10 0 60462 49500.00000 0 -10182939.236 3140755.605 -23164619.641 10 0 60462 50400.00000 0 -11604288.737 686984.065 -22690346.721 10 0 60462 51300.00000 0 -13159928.409 -1581548.158 -21774743.507 10 0 60462 52200.00000 0 -14798601.434 -3616125.548 -20435450.894 10 0 60462 53100.00000 0 -16462074.380 -5378749.043 -18698381.703 10 0 60462 54000.00000 0 -18087522.926 -6843482.835 -16597226.562 10 0 60462 54900.00000 0 -19610133.685 -7997291.225 -14172804.746 10 0 60462 55800.00000 0 -20965812.673 -8840330.435 -11472271.911 10 0 60462 56700.00000 0 -22093885.856 -9385683.309 -8548199.854 10 0 60462 57600.00000 0 -22939677.052 -9658548.602 -5457546.279 10 0 60462 58500.00000 0 -23456853.179 -9694919.970 -2260535.298 10 0 60462 59400.00000 0 -23609436.555 -9539811.714 980528.532 10 0 60462 60300.00000 0 -23373398.072 -9245108.002 4202488.194 10 0 60462 61200.00000 0 -22737762.938 -8867128.446 7342578.692 10 0 60462 62100.00000 0 -21705181.783 -8464015.129 10339662.210 10 0 60462 63000.00000 0 -20291942.841 -8093053.668 13135428.460 10 0 60462 63900.00000 0 -18527425.001 -7808043.405 15675535.664 10 0 60462 64800.00000 0 -16453015.403 -7656829.312 17910669.271 10 0 60462 65700.00000 0 -14120537.875 -7679100.776 19797497.603 10 0 60462 66600.00000 0 -11590259.066 -7904550.522 21299506.142 10 0 60462 67500.00000 0 -8928556.490 -8351471.143 22387695.044 10 0 60462 68400.00000 0 -6205346.341 -9025847.801 23041127.511 10 0 60462 69300.00000 0 -3491378.431 -9920984.428 23247319.782 10 0 60462 70200.00000 0 -855510.375 -11017678.251 23002466.694 10 0 60462 71100.00000 0 1637926.631 -12284934.502 22311499.890 10 0 60462 72000.00000 0 3931562.461 -13681190.716 21187978.793 10 0 60462 72900.00000 0 5977123.891 -15155999.058 19653817.439 10 0 60462 73800.00000 0 7737185.099 -16652096.293 17738853.034 10 0 60462 74700.00000 0 9186462.313 -18107775.118 15480264.846 10 0 60462 75600.00000 0 10312601.021 -19459458.309 12921854.590 10 0 60462 76500.00000 0 11116425.040 -20644368.778 10113201.796 10 0 60462 77400.00000 0 11611638.845 -21603184.661 7108709.953 10 0 60462 78300.00000 0 11823997.025 -22282569.127 3966561.133 10 0 60462 79200.00000 0 11789976.652 -22637469.623 747598.509 10 0 60462 80100.00000 0 11555008.854 -22633090.624 -2485842.348 10 0 60462 81000.00000 0 11171344.076 -22246457.312 -5671131.520 10 0 60462 81900.00000 0 10695640.741 -21467504.352 -8746549.625 10 0 60462 82800.00000 0 10186378.559 -20299643.455 -11652476.706 10 0 60462 83700.00000 0 9701205.070 -18759784.916 -14332542.602 10 0 60462 84600.00000 0 9294326.962 -16877810.815 -16734716.871 10 0 60462 85500.00000 0 9014055.934 -14695520.312 -18812317.400 99